FUNCUBE-1 (AO-73)

Last updated on Mon Nov 03 2025 00:03:21 GMT+0000 (Coordinated Universal Time)

1 39444U 13066AE 25306.44327951 .00009378 00000+0 65487-3 0 9990 2 39444 97.8010 269.2694 0037586 253.3191 106.3907 15.04994615645502
UTC large
Height (km)
Speed (km/s)
/
Latitude / Longitude
Inclination (degrees)
Orbital Period (minutes)
Azimuth
Elevation
Range (km)
Doppler Factor

Next 0 passes for location: London (51.5072 / 0.1276)

Sorry there are no passes over London.